TimeCDT,TemperatureF,Dew PointF,Humidity,Sea Level PressureIn,VisibilityMPH,Wind Direction,Wind SpeedMPH,Gust SpeedMPH,PrecipitationIn,Events,Conditions,WindDirDegrees,DateUTC
12:15 AM,64.4,64.4,100,30.12,5.0,ESE,4.6,-,N/A,,Clear,120,2013-10-27 05:15:00
12:35 AM,64.4,64.4,100,30.12,7.0,ESE,3.5,-,N/A,,Clear,120,2013-10-27 05:35:00
12:55 AM,63.9,63.9,100,30.11,3.0,SE,3.5,-,N/A,,Clear,140,2013-10-27 05:55:00
1:15 AM,63.7,63.7,100,30.10,4.0,ESE,4.6,-,N/A,,Clear,120,2013-10-27 06:15:00
1:35 AM,64.0,64.0,100,30.09,5.0,ESE,4.6,-,N/A,,Clear,120,2013-10-27 06:35:00
1:55 AM,64.4,64.4,100,30.09,7.0,Calm,Calm,-,N/A,,Mostly Cloudy,0,2013-10-27 06:55:00
2:15 AM,64.8,64.8,100,30.09,7.0,SE,3.5,-,N/A,,Overcast,140,2013-10-27 07:15:00
2:35 AM,64.4,64.4,100,30.08,7.0,Calm,Calm,-,N/A,,Mostly Cloudy,0,2013-10-27 07:35:00
2:55 AM,64.2,64.2,100,30.08,7.0,Calm,Calm,-,N/A,,Overcast,0,2013-10-27 07:55:00
3:15 AM,64.8,64.8,100,30.09,7.0,North,3.5,-,N/A,,Overcast,10,2013-10-27 08:15:00
3:35 AM,64.0,64.0,100,30.10,5.0,North,5.8,-,N/A,,Overcast,360,2013-10-27 08:35:00
3:55 AM,63.9,63.9,100,30.09,4.0,NNE,8.1,-,N/A,,Overcast,20,2013-10-27 08:55:00
4:15 AM,63.5,63.5,100,30.08,5.0,NNE,8.1,-,N/A,,Overcast,30,2013-10-27 09:15:00
4:35 AM,63.5,63.5,100,30.08,5.0,NNE,8.1,-,N/A,,Overcast,20,2013-10-27 09:35:00
4:55 AM,63.7,63.7,100,30.08,5.0,NNE,8.1,-,N/A,,Overcast,30,2013-10-27 09:55:00
5:15 AM,64.2,64.2,100,30.07,4.0,NE,9.2,-,N/A,,Overcast,40,2013-10-27 10:15:00
5:35 AM,64.4,64.4,100,30.07,4.0,NE,10.4,-,N/A,,Overcast,50,2013-10-27 10:35:00
5:55 AM,64.6,64.6,100,30.09,7.0,NNE,8.1,-,N/A,Thunderstorm,Overcast,30,2013-10-27 10:55:00
6:15 AM,64.8,64.8,100,30.09,7.0,NNE,5.8,-,N/A,,Overcast,20,2013-10-27 11:15:00
6:35 AM,64.6,64.6,100,30.09,7.0,NNW,6.9,-,N/A,Thunderstorm,Thunderstorm,340,2013-10-27 11:35:00
6:55 AM,63.7,62.6,96,30.09,10.0,NNE,10.4,-,N/A,Rain-Thunderstorm,Thunderstorms and Rain,30,2013-10-27 11:55:00
7:15 AM,62.6,61.5,96,30.09,10.0,NNE,12.7,-,N/A,Rain,Light Rain,20,2013-10-27 12:15:00
7:35 AM,61.9,61.7,99,30.10,7.0,NNW,9.2,-,N/A,Rain-Thunderstorm,Thunderstorms and Rain,340,2013-10-27 12:35:00
7:55 AM,61.3,61.3,100,30.11,7.0,North,5.8,-,N/A,Rain-Thunderstorm,Rain,360,2013-10-27 12:55:00
8:15 AM,61.3,61.3,100,30.13,7.0,North,6.9,-,N/A,Rain,Rain,10,2013-10-27 13:15:00
8:35 AM,61.2,61.2,100,30.12,5.0,NNE,5.8,-,N/A,Rain,Rain,20,2013-10-27 13:35:00
8:55 AM,61.2,61.2,100,30.11,7.0,East,6.9,-,N/A,Rain,Rain,100,2013-10-27 13:55:00
9:15 AM,61.2,61.2,100,30.11,10.0,ESE,6.9,-,N/A,Rain,Light Rain,110,2013-10-27 14:15:00
9:35 AM,61.3,61.3,100,30.10,10.0,ESE,11.5,-,N/A,Rain,Light Rain,120,2013-10-27 14:35:00
9:55 AM,61.9,61.9,100,30.08,7.0,SE,12.7,-,N/A,Rain,Light Rain,130,2013-10-27 14:55:00
10:15 AM,63.3,63.3,100,30.07,10.0,SE,11.5,16.1,N/A,Rain,Light Rain,130,2013-10-27 15:15:00
10:35 AM,64.4,64.4,100,30.07,10.0,SE,12.7,18.4,N/A,Rain,Light Rain,140,2013-10-27 15:35:00
10:55 AM,64.9,64.4,98,30.07,10.0,SSE,11.5,17.3,N/A,Rain,Light Rain,150,2013-10-27 15:55:00
11:15 AM,67.3,65.8,95,30.05,10.0,SSE,11.5,-,N/A,,Overcast,150,2013-10-27 16:15:00
11:35 AM,70.2,65.7,86,30.07,10.0,SSE,11.5,17.3,N/A,,Mostly Cloudy,150,2013-10-27 16:35:00
11:55 AM,71.6,65.3,80,30.07,10.0,SSE,11.5,-,N/A,,Scattered Clouds,160,2013-10-27 16:55:00
12:15 PM,73.6,66.0,77,30.07,10.0,SE,8.1,-,N/A,,Clear,140,2013-10-27 17:15:00
12:35 PM,73.6,65.7,76,30.07,10.0,SSE,5.8,-,N/A,,Clear,160,2013-10-27 17:35:00
12:55 PM,76.1,66.2,71,30.07,10.0,SSE,12.7,-,N/A,,Clear,160,2013-10-27 17:55:00
1:15 PM,76.1,65.1,69,30.06,10.0,SSE,11.5,16.1,N/A,,Clear,160,2013-10-27 18:15:00
1:35 PM,75.4,65.5,71,30.05,10.0,South,8.1,-,N/A,,Scattered Clouds,180,2013-10-27 18:35:00
1:55 PM,74.3,65.3,73,30.05,10.0,South,6.9,-,N/A,Rain,Light Rain,180,2013-10-27 18:55:00
2:15 PM,74.3,65.7,74,30.04,10.0,South,3.5,-,N/A,,Overcast,170,2013-10-27 19:15:00
2:35 PM,73.4,66.2,78,30.03,10.0,WNW,4.6,-,N/A,,Overcast,290,2013-10-27 19:35:00
2:55 PM,76.5,64.4,66,30.03,10.0,West,6.9,-,N/A,,Overcast,260,2013-10-27 19:55:00
3:15 PM,74.5,65.5,73,30.03,10.0,West,5.8,-,N/A,,Overcast,270,2013-10-27 20:15:00
3:35 PM,73.9,64.8,73,30.03,10.0,WNW,5.8,-,N/A,,Mostly Cloudy,290,2013-10-27 20:35:00
3:55 PM,74.5,64.4,71,30.02,10.0,West,6.9,-,N/A,,Mostly Cloudy,280,2013-10-27 20:55:00
4:15 PM,74.5,63.9,69,30.02,10.0,West,3.5,-,N/A,,Scattered Clouds,280,2013-10-27 21:15:00
4:35 PM,76.1,62.8,63,30.02,10.0,WSW,4.6,-,N/A,,Clear,250,2013-10-27 21:35:00
4:55 PM,75.6,62.2,63,30.02,10.0,Calm,Calm,-,N/A,,Scattered Clouds,0,2013-10-27 21:55:00
5:15 PM,75.6,61.9,62,30.02,10.0,WNW,3.5,-,N/A,,Clear,290,2013-10-27 22:15:00
5:35 PM,74.8,62.1,64,30.02,10.0,NW,3.5,-,N/A,,Clear,310,2013-10-27 22:35:00
5:55 PM,73.8,62.6,68,30.02,10.0,Calm,Calm,-,N/A,,Clear,0,2013-10-27 22:55:00
6:15 PM,72.1,63.5,74,30.02,10.0,NW,3.5,-,N/A,,Clear,320,2013-10-27 23:15:00
6:35 PM,70.0,63.5,80,30.02,10.0,Calm,Calm,-,N/A,,Clear,0,2013-10-27 23:35:00
6:55 PM,68.0,64.2,88,30.02,10.0,Calm,Calm,-,N/A,,Clear,0,2013-10-27 23:55:00
7:15 PM,66.9,65.7,96,30.03,10.0,Calm,Calm,-,N/A,,Clear,0,2013-10-28 00:15:00
7:35 PM,65.5,65.3,99,30.03,10.0,Calm,Calm,-,N/A,,Clear,0,2013-10-28 00:35:00
7:55 PM,64.4,64.4,100,30.04,10.0,Calm,Calm,-,N/A,,Clear,0,2013-10-28 00:55:00
8:15 PM,65.1,64.2,97,30.05,10.0,NW,4.6,-,N/A,,Clear,320,2013-10-28 01:15:00
8:35 PM,65.3,64.6,98,30.05,10.0,NW,3.5,-,N/A,,Clear,320,2013-10-28 01:35:00
8:55 PM,64.8,64.4,99,30.05,10.0,Calm,Calm,-,N/A,,Scattered Clouds,0,2013-10-28 01:55:00
9:15 PM,64.0,63.7,99,30.05,10.0,Calm,Calm,-,N/A,,Mostly Cloudy,0,2013-10-28 02:15:00
9:35 PM,64.0,63.9,99,30.05,10.0,Calm,Calm,-,N/A,,Scattered Clouds,0,2013-10-28 02:35:00
9:55 PM,63.0,63.0,100,30.06,10.0,Calm,Calm,-,N/A,,Scattered Clouds,0,2013-10-28 02:55:00
10:15 PM,63.0,63.0,100,30.06,10.0,Calm,Calm,-,N/A,,Mostly Cloudy,0,2013-10-28 03:15:00
10:35 PM,63.1,63.1,100,30.07,10.0,Calm,Calm,-,N/A,,Overcast,0,2013-10-28 03:35:00
10:55 PM,63.0,63.0,100,30.07,10.0,Calm,Calm,-,N/A,,Mostly Cloudy,0,2013-10-28 03:55:00
11:15 PM,62.4,62.4,100,30.07,10.0,Calm,Calm,-,N/A,,Scattered Clouds,0,2013-10-28 04:15:00
11:35 PM,61.7,61.7,100,30.07,10.0,Calm,Calm,-,N/A,,Mostly Cloudy,0,2013-10-28 04:35:00
11:55 PM,62.1,62.1,100,30.07,10.0,Calm,Calm,-,N/A,,Overcast,0,2013-10-28 04:55:00